FW6341 Weather Reports


time (UTC)temp
C
wind
direction
speed
KPH
gust
KPH
rain 1hr
cm
rain 24hr
cm
rain mn
cm
humidity
%
barometer
mb
20260509233621 25 317 1.6 1.6 0.00 0.00 0.00 39 1015.8
20260509233118 25 62 3.2 3.2 0.00 0.00 0.00 40 1015.8
20260509232614 25 221 3.2 3.2 0.00 0.00 0.00 40 1015.9
20260509232111 25 184 1.6 1.6 0.00 0.00 0.00 39 1015.9
20260509231608 25 164 1.6 1.6 0.00 0.00 0.00 40 1016.1
20260509231106 25 41 1.6 3.2 0.00 0.00 0.00 41 1016.1
20260509230602 25 284 3.2 3.2 0.00 0.00 0.00 41 1016.1
20260509230059 25 145 1.6 1.6 0.00 0.00 0.00 44 1016.4
20260509225555 25 196 1.6 1.6 0.00 0.00 0.00 43 1016.4
20260509225050 25 282 3.2 3.2 0.00 0.00 0.00 42 1016.4
20260509224546 25 301 3.2 4.8 0.00 0.00 0.00 41 1016.7
20260509224043 25 161 1.6 1.6 0.00 0.00 0.00 43 1016.5
20260509223540 25 172 1.6 1.6 0.00 0.00 0.00 42 1016.7
20260509223038 26 146 0.0 1.6 0.00 0.00 0.00 41 1016.8
20260509222533 25 221 0.0 1.6 0.00 0.00 0.00 44 1016.9
20260509222035 25 180 1.6 1.6 0.00 0.00 0.00 43 1017.0
20260509221525 25 245 4.8 4.8 0.00 0.00 0.00 44 1017.1
20260509221022 25 177 1.6 1.6 0.00 0.00 0.00 45 1017.0
20260509220518 25 284 4.8 4.8 0.00 0.00 0.00 45 1017.2
20260509220014 25 81 1.6 1.6 0.00 0.00 0.00 46 1017.1
20260509215509 25 96 1.6 1.6 0.00 0.00 0.00 47 1017.4
20260509215007 25 71 1.6 1.6 0.00 0.00 0.00 45 1017.4
20260509214504 25 185 1.6 1.6 0.00 0.00 0.00 46 1017.7
20260509214001 25 279 4.8 8.0 0.00 0.00 0.00 45 1017.6
20260509213457 26 103 0.0 0.0 0.00 0.00 0.00 47 1017.7
20260509212954 25 313 3.2 3.2 0.00 0.00 0.00 47 1017.6
20260509212451 25 273 1.6 3.2 0.00 0.00 0.00 47 1017.6
20260509211948 25 258 1.6 1.6 0.00 0.00 0.00 46 1017.7
20260509211443 25 210 1.6 1.6 0.00 0.00 0.00 46 1017.8
20260509210940 25 106 3.2 3.2 0.00 0.00 0.00 48 1017.6
20260509210437 24 146 0.0 0.0 0.00 0.00 0.00 48 1017.6
20260509205932 24 303 1.6 1.6 0.00 0.00 0.00 49 1018.0
20260509205427 24 146 1.6 3.2 0.00 0.00 0.00 50 1017.9
20260509204923 23 131 1.6 1.6 0.00 0.00 0.00 54 1018.2
20260509204420 24 152 1.6 1.6 0.00 0.00 0.00 51 1018.1
20260509203917 23 151 0.0 0.0 0.00 0.00 0.00 52 1018.2
20260509203412 23 288 3.2 3.2 0.00 0.00 0.00 51 1018.3
20260509202910 23 88 1.6 1.6 0.00 0.00 0.00 51 1018.3
20260509202406 23 236 1.6 3.2 0.00 0.00 0.00 50 1018.4
20260509201901 23 242 0.0 1.6 0.00 0.00 0.00 59 1018.6
20260509201356 23 307 4.8 8.0 0.00 0.00 0.00 52 1018.7
20260509200854 23 135 1.6 1.6 0.00 0.00 0.00 52 1018.9
20260509200348 23 297 1.6 1.6 0.00 0.00 0.00 53 1018.7
20260509195846 23 137 1.6 1.6 0.00 0.00 0.00 53 1019.1
20260509195346 22 117 0.0 1.6 0.00 0.00 0.00 58 1018.9
20260509194845 22 163 1.6 1.6 0.00 0.00 0.00 53 1019.1
20260509194342 22 73 0.0 1.6 0.00 0.00 0.00 55 1019.3
20260509193838 22 190 3.2 3.2 0.00 0.00 0.00 54 1019.3
20260509193338 22 285 1.6 3.2 0.00 0.00 0.00 55 1019.3
20260509192834 23 248 3.2 4.8 0.00 0.00 0.00 53 1019.5
20260509192330 22 153 0.0 0.0 0.00 0.00 0.00 55 1019.4
20260509191826 22 150 0.0 1.6 0.00 0.00 0.00 56 1019.8
20260509191322 21 279 1.6 3.2 0.00 0.00 0.00 57 1019.8
20260509190818 22 306 1.6 1.6 0.00 0.00 0.00 57 1019.6
20260509190315 22 300 1.6 3.2 0.00 0.00 0.00 60 1019.9
20260509185813 21 127 0.0 0.0 0.00 0.00 0.00 57 1020.0
20260509185309 21 302 1.6 1.6 0.00 0.00 0.00 58 1020.1
20260509184806 21 285 3.2 4.8 0.00 0.00 0.00 57 1020.2
20260509184304 20 101 0.0 1.6 0.00 0.00 0.00 58 1020.1
20260509183800 20 304 1.6 3.2 0.00 0.00 0.00 59 1020.2
20260509183255 20 102 0.0 1.6 0.00 0.00 0.00 63 1020.5
20260509182751 20 103 1.6 1.6 0.00 0.00 0.00 63 1020.3
20260509182248 19 151 0.0 1.6 0.00 0.00 0.00 64 1020.3
20260509181745 19 106 0.0 1.6 0.00 0.00 0.00 63 1020.4
20260509181243 18 109 0.0 0.0 0.00 0.00 0.00 64 1020.4
20260509180740 18 109 1.6 1.6 0.00 0.00 0.00 66 1020.3
20260509180236 18 95 0.0 1.6 0.00 0.00 0.00 68 1020.5
20260509175732 18 175 1.6 1.6 0.00 0.00 0.00 66 1020.3
20260509175229 18 103 1.6 1.6 0.00 0.00 0.00 66 1020.5
20260509174725 18 228 1.6 1.6 0.00 0.00 0.00 68 1020.7
20260509174220 17 198 1.6 1.6 0.00 0.00 0.00 69 1020.7
20260509173717 17 98 0.0 1.6 0.00 0.00 0.00 71 1020.5
20260509173213 17 111 0.0 0.0 0.00 0.00 0.00 70 1020.9
20260509172709 17 95 1.6 3.2 0.00 0.00 0.00 70 1021.2
20260509172205 16 108 0.0 1.6 0.00 0.00 0.00 72 1021.1
20260509171701 16 344 3.2 3.2 0.00 0.00 0.00 73 1021.2
20260509171157 16 161 0.0 0.0 0.00 0.00 0.00 73 1021.2
20260509170654 16 157 1.6 1.6 0.00 0.00 0.00 75 1021.3
20260509170150 15 110 0.0 0.0 0.00 0.00 0.00 74 1021.1
20260509165648 15 99 1.6 1.6 0.00 0.00 0.00 75 1021.4
20260509165144 15 165 1.6 1.6 0.00 0.00 0.00 76 1021.3
20260509164640 15 149 1.6 1.6 0.00 0.00 0.00 76 1021.5
20260509164136 15 110 0.0 0.0 0.00 0.00 0.00 77 1021.6
20260509163634 15 136 0.0 1.6 0.00 0.00 0.00 78 1021.7
20260509163129 14 106 0.0 1.6 0.00 0.00 0.00 78 1021.7
20260509162627 14 97 0.0 1.6 0.00 0.00 0.00 79 1021.9
20260509162123 14 168 0.0 1.6 0.00 0.00 0.00 80 1022.0
20260509161619 13 86 1.6 1.6 0.00 0.00 0.00 80 1022.0
20260509161114 13 101 0.0 0.0 0.00 0.00 0.00 82 1022.0
20260509160611 13 128 0.0 0.0 0.00 0.00 0.00 83 1022.1
20260509160106 13 140 0.0 0.0 0.00 0.00 0.00 84 1022.0
20260509155602 13 107 0.0 1.6 0.00 0.00 0.00 85 1021.8
20260509155059 12 131 0.0 0.0 0.00 0.00 0.00 86 1021.8
20260509154555 12 106 0.0 0.0 0.00 0.00 0.00 86 1022.1
20260509154052 12 114 0.0 0.0 0.00 0.00 0.00 87 1022.1
20260509153549 12 126 0.0 0.0 0.00 0.00 0.00 87 1022.2
20260509153040 12 254 0.0 0.0 0.00 0.00 0.00 87 1022.4
20260509152536 12 143 0.0 1.6 0.00 0.00 0.00 88 1022.2
20260509152033 11 92 0.0 0.0 0.00 0.00 0.00 90 1022.4
20260509151529 11 109 0.0 0.0 0.00 0.00 0.00 91 1022.7
20260509151027 11 92 0.0 0.0 0.00 0.00 0.00 92 1022.4
20260509150525 10 100 0.0 1.6 0.00 0.00 0.00 95 1022.5
20260509150023 10 118 0.0 0.0 0.00 0.00 0.00 98 1022.5
20260509145518 10 83 1.6 1.6 0.00 0.00 0.00 99 1022.5
20260509145013 10 122 0.0 0.0 0.00 0.00 0.00 99 1022.5
20260509144511 9 122 0.0 0.0 0.00 0.00 0.00 99 1022.4
20260509144008 8 122 0.0 0.0 0.00 0.00 0.00 99 1022.3
20260509143505 8 122 0.0 0.0 0.00 0.00 0.00 99 1022.5
20260509143003 8 122 0.0 0.0 0.00 0.00 0.00 99 1022.5
20260509142458 8 122 0.0 0.0 0.00 0.00 0.00 99 1022.5
20260509141953 7 122 0.0 0.0 0.00 0.00 0.00 99 1022.2
20260509141450 7 122 0.0 0.0 0.00 0.00 0.00 99 1022.2
20260509140947 7 122 0.0 0.0 0.00 0.00 0.00 99 1022.2
20260509140443 7 122 0.0 0.0 0.00 0.00 0.00 99 1022.3
20260509135942 7 122 0.0 0.0 0.00 0.00 0.00 99 1022.3
20260509135439 6 122 0.0 0.0 0.00 0.00 0.00 99 1022.3
20260509134936 6 122 0.0 0.0 0.00 0.00 0.00 99 1021.8
20260509134433 6 123 0.0 0.0 0.00 0.00 0.00 99 1022.0
20260509133931 6 123 0.0 0.0 0.00 0.00 0.00 99 1022.1
20260509133427 6 123 0.0 0.0 0.00 0.00 0.00 99 1022.2
20260509132925 6 123 0.0 0.0 0.00 0.00 0.00 99 1022.1
20260509132423 6 123 0.0 0.0 0.00 0.00 0.00 99 1022.0
20260509131920 6 123 0.0 0.0 0.00 0.00 0.00 98 1022.0
20260509131417 6 123 0.0 0.0 0.00 0.00 0.00 98 1021.9
20260509130914 6 123 0.0 0.0 0.00 0.00 0.00 98 1022.0
20260509130409 6 123 0.0 0.0 0.00 0.00 0.00 98 1022.0
20260509125906 6 123 0.0 0.0 0.00 0.00 0.00 98 1022.0
20260509125403 6 123 0.0 0.0 0.00 0.00 0.00 98 1022.1
20260509124859 6 122 0.0 0.0 0.00 0.00 0.00 98 1022.2
20260509124356 6 122 0.0 0.0 0.00 0.00 0.00 98 1022.1
20260509123854 6 123 0.0 0.0 0.00 0.00 0.00 98 1022.4
20260509123351 6 122 0.0 0.0 0.00 0.00 0.00 98 1022.2
20260509122847 6 122 0.0 0.0 0.00 0.00 0.00 98 1022.1
20260509122344 6 123 0.0 0.0 0.00 0.00 0.00 98 1022.2
20260509121840 6 122 0.0 0.0 0.00 0.00 0.00 98 1022.2
20260509121337 6 122 0.0 0.0 0.00 0.00 0.00 98 1022.2
20260509120836 6 123 0.0 0.0 0.00 0.00 0.00 98 1022.2
20260509120333 6 122 0.0 0.0 0.00 0.00 0.00 98 1022.2
20260509115831 6 122 0.0 0.0 0.00 0.00 0.00 98 1022.2
20260509115328 7 123 0.0 0.0 0.00 0.00 0.00 98 1022.0
20260509114826 7 123 0.0 0.0 0.00 0.00 0.00 98 1022.1
20260509114324 7 123 0.0 0.0 0.00 0.00 0.00 97 1022.0
20260509113823 7 123 0.0 0.0 0.00 0.00 0.00 97 1022.2
20260509113320 7 123 0.0 0.0 0.00 0.00 0.00 97 1022.3
20260509112817 7 123 0.0 0.0 0.00 0.00 0.00 97 1022.3
20260509112314 7 123 0.0 0.0 0.00 0.00 0.00 97 1022.4
20260509111811 7 123 0.0 0.0 0.00 0.00 0.00 97 1022.6
20260509111308 7 122 0.0 0.0 0.00 0.00 0.00 97 1022.4
20260509110805 7 122 0.0 0.0 0.00 0.00 0.00 97 1022.6
20260509110301 7 123 0.0 0.0 0.00 0.00 0.00 97 1022.8
20260509105800 7 123 0.0 0.0 0.00 0.00 0.00 97 1022.8
20260509105257 7 123 0.0 0.0 0.00 0.00 0.00 97 1022.9
20260509104754 7 123 0.0 0.0 0.00 0.00 0.00 96 1022.6
20260509104250 7 123 0.0 0.0 0.00 0.00 0.00 96 1022.5
20260509103749 7 123 0.0 0.0 0.00 0.00 0.00 96 1022.6
20260509103245 8 123 0.0 0.0 0.00 0.00 0.00 96 1022.5
20260509102744 8 123 0.0 0.0 0.00 0.00 0.00 96 1022.5
20260509102241 8 123 0.0 0.0 0.00 0.00 0.00 96 1022.7
20260509101737 8 123 0.0 0.0 0.00 0.00 0.00 96 1022.5
20260509101233 8 123 0.0 0.0 0.00 0.00 0.00 96 1022.4
20260509100731 8 123 0.0 0.0 0.00 0.00 0.00 96 1022.6
20260509100228 8 123 0.0 0.0 0.00 0.00 0.00 95 1022.4
20260509095724 8 123 0.0 0.0 0.00 0.00 0.00 95 1022.7
20260509095222 8 123 0.0 0.0 0.00 0.00 0.00 95 1022.6
20260509094719 8 123 0.0 0.0 0.00 0.00 0.00 94 1022.6
20260509094215 8 123 0.0 0.0 0.00 0.00 0.00 94 1022.4
20260509093714 8 123 0.0 0.0 0.00 0.00 0.00 94 1022.6
20260509093210 8 123 0.0 0.0 0.00 0.00 0.00 94 1022.5
20260509092709 9 123 0.0 0.0 0.00 0.00 0.00 94 1022.6
20260509092207 9 123 0.0 0.0 0.00 0.00 0.00 93 1022.8
20260509091705 9 123 0.0 0.0 0.00 0.00 0.00 92 1022.8
20260509091200 9 123 0.0 0.0 0.00 0.00 0.00 92 1023.1
20260509090658 9 123 0.0 0.0 0.00 0.00 0.00 92 1022.7
20260509090155 10 123 0.0 0.0 0.00 0.00 0.00 92 1022.9
20260509085653 10 123 0.0 0.0 0.00 0.00 0.00 92 1022.9
20260509085149 10 123 0.0 0.0 0.00 0.00 0.00 91 1023.0
20260509084646 10 123 0.0 0.0 0.00 0.00 0.00 91 1023.2
20260509084143 10 123 0.0 0.0 0.00 0.00 0.00 91 1023.0
20260509083641 10 123 0.0 0.0 0.00 0.00 0.00 90 1023.0
20260509083137 10 123 0.0 0.0 0.00 0.00 0.00 90 1023.2
20260509082634 10 123 0.0 0.0 0.00 0.00 0.00 89 1023.3
20260509082131 10 123 0.0 0.0 0.00 0.00 0.00 89 1023.5
20260509081628 10 123 0.0 0.0 0.00 0.00 0.00 89 1023.5
20260509081125 10 123 0.0 0.0 0.00 0.00 0.00 89 1023.4
20260509080623 11 123 0.0 0.0 0.00 0.00 0.00 89 1023.4
20260509080121 11 123 0.0 0.0 0.00 0.00 0.00 88 1023.2
20260509075618 11 123 0.0 0.0 0.00 0.00 0.00 88 1023.5
20260509075116 11 123 0.0 0.0 0.00 0.00 0.00 87 1023.2
20260509074613 11 123 0.0 0.0 0.00 0.00 0.00 87 1023.4
20260509074109 11 123 0.0 0.0 0.00 0.00 0.00 86 1023.3
20260509073606 11 122 0.0 0.0 0.00 0.00 0.00 85 1023.5
20260509073102 11 122 0.0 0.0 0.00 0.00 0.00 85 1023.4
20260509072559 12 123 0.0 0.0 0.00 0.00 0.00 84 1023.3
20260509072056 12 122 0.0 0.0 0.00 0.00 0.00 84 1023.3
20260509071553 12 122 0.0 0.0 0.00 0.00 0.00 83 1023.5
20260509071050 12 122 0.0 0.0 0.00 0.00 0.00 82 1023.3
20260509070547 12 122 0.0 0.0 0.00 0.00 0.00 81 1023.2
20260509070043 13 122 0.0 0.0 0.00 0.00 0.00 80 1023.3
20260509065539 13 122 0.0 0.0 0.00 0.00 0.00 79 1023.3
20260509065035 13 122 0.0 0.0 0.00 0.00 0.00 78 1023.4
20260509064533 13 122 0.0 0.0 0.00 0.00 0.00 77 1023.3
20260509064031 13 122 0.0 0.0 0.00 0.00 0.00 77 1023.3
20260509063531 13 122 0.0 0.0 0.00 0.00 0.00 76 1023.4
20260509063029 13 122 0.0 0.0 0.00 0.00 0.00 75 1023.3
20260509062526 14 122 0.0 0.0 0.00 0.00 0.00 75 1023.3
20260509062024 14 122 0.0 0.0 0.00 0.00 0.00 75 1023.3
20260509061521 14 122 0.0 0.0 0.00 0.00 0.00 75 1023.4
20260509061018 14 123 0.0 0.0 0.00 0.00 0.00 74 1023.2
20260509060515 14 99 0.0 0.0 0.00 0.00 0.00 74 1023.1
20260509060011 14 119 0.0 0.0 0.00 0.00 0.00 74 1023.1
20260509055506 14 125 0.0 0.0 0.00 0.00 0.00 74 1023.3
20260509055003 15 124 0.0 0.0 0.00 0.00 0.00 73 1023.2
20260509054459 15 110 0.0 1.6 0.00 0.00 0.00 72 1023.2
20260509053958 15 116 0.0 0.0 0.00 0.00 0.00 72 1023.1
20260509053455 15 108 0.0 0.0 0.00 0.00 0.00 71 1023.1
20260509052953 15 127 0.0 0.0 0.00 0.00 0.00 71 1023.2
20260509052450 15 105 0.0 1.6 0.00 0.00 0.00 71 1023.1
20260509051948 15 129 0.0 0.0 0.00 0.00 0.00 70 1023.2
20260509051446 15 108 1.6 1.6 0.00 0.00 0.00 69 1023.0
20260509050942 15 123 0.0 0.0 0.00 0.00 0.00 69 1023.2
20260509050439 15 127 0.0 0.0 0.00 0.00 0.00 69 1023.2
20260509045936 15 87 1.6 1.6 0.00 0.00 0.00 68 1023.0
20260509045433 15 163 1.6 1.6 0.00 0.00 0.00 68 1023.1
20260509044929 16 114 0.0 0.0 0.00 0.00 0.00 68 1022.8
20260509044428 16 108 1.6 1.6 0.00 0.00 0.00 68 1022.7
20260509043925 16 177 1.6 1.6 0.00 0.00 0.00 68 1022.7
20260509043420 16 102 0.0 0.0 0.00 0.00 0.00 68 1022.6
20260509042916 15 134 0.0 0.0 0.00 0.00 0.00 68 1022.8
20260509042413 15 99 0.0 1.6 0.00 0.00 0.00 68 1022.6
20260509041909 15 103 0.0 0.0 0.00 0.00 0.00 70 1022.4
20260509041406 15 103 0.0 0.0 0.00 0.00 0.00 70 1022.4
20260509040904 15 103 0.0 0.0 0.00 0.00 0.00 69 1022.4
20260509040402 16 103 0.0 0.0 0.00 0.00 0.00 67 1022.3
20260509035859 16 103 0.0 0.0 0.00 0.00 0.00 66 1022.3
20260509035356 16 103 0.0 0.0 0.00 0.00 0.00 67 1022.3
20260509034852 16 103 0.0 0.0 0.00 0.00 0.00 65 1022.2
20260509034349 16 103 0.0 0.0 0.00 0.00 0.00 64 1022.1
20260509033846 16 49 1.6 1.6 0.00 0.00 0.00 63 1022.1
20260509033344 16 101 0.0 0.0 0.00 0.00 0.00 62 1021.8
20260509032840 17 115 0.0 1.6 0.00 0.00 0.00 62 1021.9
20260509032338 17 268 1.6 1.6 0.00 0.00 0.00 61 1022.0
20260509031836 17 98 0.0 1.6 0.00 0.00 0.00 61 1021.9
20260509031332 17 112 0.0 1.6 0.00 0.00 0.00 60 1021.8
20260509030830 17 101 0.0 0.0 0.00 0.00 0.00 59 1021.9
20260509030328 17 170 1.6 1.6 0.00 0.00 0.00 59 1021.8
20260509025824 17 193 1.6 1.6 0.00 0.00 0.00 59 1022.0
20260509025320 18 100 0.0 1.6 0.00 0.00 0.00 58 1021.8
20260509024816 18 106 0.0 0.0 0.00 0.00 0.00 57 1021.6
20260509024312 18 111 0.0 0.0 0.00 0.00 0.00 56 1021.5
20260509023809 18 120 0.0 0.0 0.00 0.00 0.00 56 1021.7
20260509023306 18 79 1.6 1.6 0.00 0.00 0.00 55 1021.5
20260509022802 18 147 0.0 0.0 0.00 0.00 0.00 55 1021.6
20260509022300 18 132 1.6 1.6 0.00 0.00 0.00 54 1021.4
20260509021757 18 292 1.6 1.6 0.00 0.00 0.00 54 1021.7
20260509021254 18 111 0.0 0.0 0.00 0.00 0.00 55 1021.7
20260509020752 18 107 0.0 1.6 0.00 0.00 0.00 54 1021.7
20260509020249 18 127 0.0 0.0 0.00 0.00 0.00 55 1021.6
20260509015747 18 147 0.0 1.6 0.00 0.00 0.00 54 1021.8
20260509015245 19 155 1.6 1.6 0.00 0.00 0.00 53 1021.5
20260509014741 19 137 1.6 1.6 0.00 0.00 0.00 53 1021.6
20260509014238 19 147 1.6 1.6 0.00 0.00 0.00 54 1021.6
20260509013735 19 99 1.6 1.6 0.00 0.00 0.00 53 1021.6
20260509013230 18 189 1.6 1.6 0.00 0.00 0.00 53 1021.8
20260509012727 18 119 0.0 0.0 0.00 0.00 0.00 54 1021.7
20260509012224 18 145 0.0 1.6 0.00 0.00 0.00 53 1021.5
20260509011722 18 159 0.0 1.6 0.00 0.00 0.00 53 1021.8
20260509011219 19 120 0.0 1.6 0.00 0.00 0.00 54 1021.8
20260509010717 20 277 1.6 1.6 0.00 0.00 0.00 51 1022.0
20260509010213 20 124 0.0 1.6 0.00 0.00 0.00 52 1021.6
20260509005710 19 127 0.0 0.0 0.00 0.00 0.00 54 1022.0
20260509005208 19 118 0.0 0.0 0.00 0.00 0.00 52 1022.0
20260509004702 20 110 0.0 0.0 0.00 0.00 0.00 52 1021.9
20260509004200 19 146 0.0 0.0 0.00 0.00 0.00 53 1021.9
20260509003658 20 317 4.8 8.0 0.00 0.00 0.00 51 1021.9
20260509003155 19 26 1.6 1.6 0.00 0.00 0.00 51 1022.0
20260509002652 19 349 1.6 3.2 0.00 0.00 0.00 52 1022.0
20260509002150 19 314 1.6 1.6 0.00 0.00 0.00 52 1022.1
20260509001647 19 102 1.6 1.6 0.00 0.00 0.00 54 1021.9
20260509001143 18 87 1.6 1.6 0.00 0.00 0.00 53 1022.2
20260509000641 19 205 1.6 1.6 0.00 0.00 0.00 53 1022.1
20260509000138 20 259 1.6 1.6 0.00 0.00 0.00 52 1022.1
20260508235635 19 173 1.6 1.6 0.00 0.00 0.00 51 1022.1
20260508235131 20 124 1.6 1.6 0.00 0.00 0.00 51 1022.0
20260508234629 20 279 1.6 1.6 0.00 0.00 0.00 51 1022.1
20260508234125 19 181 1.6 1.6 0.00 0.00 0.00 52 1022.1